This is the latest recevied weather packets stored in our database for station/object KF7SOJ. If no packets are shown the sender has not sent any weather packets the latest 10 day(s).
| Time | Temp. | Humidity | Pressure | Rain* | Wind** | Luminosity | Snow |
|---|---|---|---|---|---|---|---|
| 1777645866 | 10° C | 45% | 935.7 hPa | 0 mm | - | 339 W/m² | - |
| 1777645564 | 10.56° C | 46% | 935.6 hPa | 0 mm | - | 323 W/m² | - |
| 1777645259 | 10° C | 47% | 935.7 hPa | 0 mm | - | 303 W/m² | - |
| 1777644955 | 9.44° C | 48% | 935.8 hPa | 0 mm | - | 279 W/m² | - |
| 1777644653 | 9.44° C | 49% | 935.8 hPa | 0 mm | - | 260 W/m² | - |
| 1777644349 | 8.89° C | 50% | 935.7 hPa | 0 mm | - | 242 W/m² | - |
| 1777644045 | 8.89° C | 51% | 935.6 hPa | 0 mm | - | 222 W/m² | - |
| 1777643742 | 8.89° C | 50% | 935.6 hPa | 0 mm | - | 210 W/m² | - |
| 1777643440 | 8.33° C | 49% | 935.6 hPa | 0 mm | - | 194 W/m² | - |
| 1777643137 | 8.33° C | 48% | 935.6 hPa | 0 mm | - | 178 W/m² | - |
| 1777642833 | 8.33° C | 48% | 935.7 hPa | 0 mm | - | 162 W/m² | - |
| 1777642530 | 7.78° C | 50% | 935.8 hPa | 0 mm | - | 147 W/m² | - |
| 1777642226 | 7.78° C | 51% | 935.6 hPa | 0 mm | - | 132 W/m² | - |
| 1777641924 | 7.22° C | 52% | 935.4 hPa | 0 mm | - | 119 W/m² | - |
| 1777641619 | 6.67° C | 53% | 935.5 hPa | 0 mm | - | 106 W/m² | - |
| 1777641314 | 6.11° C | 53% | 935.3 hPa | 0 mm | - | 94 W/m² | - |
| 1777641010 | 6.11° C | 53% | 935.4 hPa | 0 mm | - | 83 W/m² | - |
| 1777640707 | 6.11° C | 53% | 935.3 hPa | 0 mm | - | 72 W/m² | - |
| 1777640403 | 6.11° C | 54% | 935.3 hPa | 0 mm | - | 63 W/m² | - |
| 1777640101 | 6.11° C | 53% | 935.2 hPa | 0 mm | - | 56 W/m² | - |
| 1777639797 | 5.56° C | 55% | 935.1 hPa | 0 mm | - | 47 W/m² | - |
| 1777639495 | 5° C | 56% | 935.2 hPa | 0 mm | - | 39 W/m² | - |
| 1777639191 | 5° C | 56% | 935.2 hPa | 0 mm | - | 34 W/m² | - |
| 1777638887 | 4.44° C | 57% | 935.3 hPa | 0 mm | - | 29 W/m² | - |
| 1777638583 | 4.44° C | 58% | 935.2 hPa | 0 mm | - | 25 W/m² | - |
* Rain latest hour (hover to see other rain measurements)
** Current wind speed in m/s (hover to see current wind gust speed)